Voltar ao catálogo

SL-8 DEB

AtivoLEO
NORAD 3749·DEBRIS·🇷🇺 Russia

Lançado Mar 15, 1965 de Baikonur Cosmodrome

Loading…

Próximas Passagens (próximas 24 horas)

TLE

AtualizadoSource: Space-Track

Época: Sep 14, 2026, 06:25 UTC

1 03749U 65020EU  26257.26803314  .00000607  00000-0  25981-3 0  9996
2 03749  56.1107 209.6534 0440771 232.8558 123.1392 13.94017822813088

Acompanhe SL-8 DEB em tempo real com AllMySat

Download on the App Store